Regional Weather Roundup
Issued by NWS Kansas City/Pleasant Hill, MO

Home | Current Version | Previous Version | Text Only | Print | Product List | Glossary On
Versions: 1 2 3 4 5 6 7 8 9 10 11 12 13 14 15 16 17 18 19 20 21 22 23 24 25 26 27 28 29 30 31 32 33 34 35 36 37 38 39 40 41 42 43 44 45 46 47 48 49 50
000
ASUS43 KEAX 080010
RWREAX

WEATHER ROUNDUP FOR EASTERN KANSAS AND NORTHWEST MISSOURI
NATIONAL WEATHER SERVICE KANSAS CITY/PLEASANT HILL MO
700 PM CDT TUE JUL 07 2015

KSZ040-057-103>105-MOZ028-029-037-043-080100-
...KANSAS CITY METROPOLITAN AREA...

CITY           SKY/WX    TMP DP  RH WIND       PRES   REMARKS
K.C. INTL      CLOUDY    69  58  67 NE9       30.04F
6HR MIN TEMP:  69; 6HR MAX TEMP:  72;

K.C. DOWNTOWN  CLOUDY    71  59  65 NE9       30.03F
6HR MIN TEMP:  71; 6HR MAX TEMP:  76; 6HR PCP: TRACE;

LEES SUMMIT    CLOUDY    70  59  68 N10       30.05S
6HR MIN TEMP:  68; 6HR MAX TEMP:  75;

OLATHE - IXD   LGT RAIN  66  63  90 N7        30.05F FOG
6HR MIN TEMP:  66; 6HR MAX TEMP:  73; 6HR PCP:  0.01;

OLATHE - OJC   LGT RAIN  68  59  73 NE6       30.04S
6HR MIN TEMP:  68; 6HR MAX TEMP:  74; 6HR PCP: TRACE;

LAWRENCE       LGT RAIN  69  63  81 CALM      30.04F

$$

MOZ001>008-011>017-020>025-030>033-038>040-044>046-053-054-080100-
...NORTHERN AND CENTRAL MISSOURI...

CITY           SKY/WX    TMP DP  RH WIND       PRES   REMARKS
ST. JOSEPH     CLOUDY    72  58  61 NE8       30.05F
6HR MIN TEMP:  70; 6HR MAX TEMP:  74;

MOSBY          CLOUDY    70  59  68 N3        30.05S
WARRENSBURG    LGT RAIN  66  63  88 SE5       30.03F
WHITEMAN AFB   LGT RAIN  66  64  94 E5        30.03S FOG
6HR MIN TEMP:  65; 6HR MAX TEMP:  71; 6HR PCP:  0.15;

CLINTON        LGT RAIN  66  66 100 CALM      30.04S VSB 1
SEDALIA        LGT RAIN  67  64  90 CALM      30.04F FOG
6HR MIN TEMP:  67; 6HR MAX TEMP:  71; 6HR PCP:  0.51;

WARSAW         NOT AVBL
CHILLICOTHE      N/A     73  60  63 N6        30.05F
6HR MIN TEMP:  73; 6HR MAX TEMP:  76;

KIRKSVILLE     CLOUDY    72  59  63 NE9       30.05F
6HR MIN TEMP:  71; 6HR MAX TEMP:  74; 6HR PCP: TRACE;


$$

MOZ041-047>049-056>058-063>065-088>090-097-080100-
...EASTERN AND SOUTHERN MISSOURI...

CITY           SKY/WX    TMP DP  RH WIND       PRES   REMARKS
ST. LOUIS INTL CLOUDY    68  63  84 NE7       30.02R
6HR MIN TEMP:  68; 6HR MAX TEMP:  71; 6HR PCP: TRACE;

SPIRIT OF STL  LGT RAIN  66  64  94 NE9       30.01R
COLUMBIA       CLOUDY    68  65  90 SE3       30.04R FOG
JEFFERSON CITY CLOUDY    67  64  90 E3        30.03S FOG
ROLLA          LGT RAIN  65  64  97 N8        30.01S FOG
OSAGE BEACH    CLOUDY    64  63  94 NE6       30.03R
SPRINGFIELD    LGT RAIN  67  65  93 NE10      30.01S VSB 1
BRANSON        CLOUDY    72  72 100 CALM      30.02R
JOPLIN         CLOUDY    65  63  93 NE8       30.01F
WEST PLAINS    CLOUDY    73  70  90 SW6       30.02R

$$

IAZ060-094-KSZ022-034>040-054-083-096-NEZ052-066-093-080100-
...KANSAS...SOUTHEAST NEBRASKA AND IOWA...

CITY           SKY/WX    TMP DP  RH WIND       PRES   REMARKS
TOPEKA         CLOUDY    70  62  76 N3        30.05F
6HR MIN TEMP:  69; 6HR MAX TEMP:  71; 6HR PCP: TRACE;

MANHATTAN      CLOUDY    70  54  56 E9        30.05F
EMPORIA        CLOUDY    68  57  68 NE10      30.05F
CHANUTE        CLOUDY    64  61  90 NE12G22   30.04S FOG
WICHITA        CLOUDY    67  54  63 N12       30.03F
OMAHA          PTSUNNY   72  52  49 NE10      30.08F
LINCOLN        MOSUNNY   71  52  50 NE6       30.09F
FALLS CITY     CLOUDY    71  53  52 NE7       30.05F
LAMONI         CLOUDY    70  56  61 NE8       30.06F
DES MOINES     PTSUNNY   71  50  47 NE10      30.08S

$$




USA.gov is the U.S. government's official web portal to all federal, state and local government web resources and services.